Tracking 35237 objects as of 5-Sep-2026
HD Live streaming from Space Station
objects crossing your sky now

CNCE3


CNCE3 is no longer on orbit


NORAD ID: 48874
Int'l Code: 2021-058D
Launch date: June 30, 2021
Source: United States (US)
Launch site: Pegasus launched from Western Range Air Space (WRAS)
Decay date: 2023-10-31
Your satellite tracking list
Your tracking list is empty




NASA's NSSDC Master Catalog

Two Line Element Set (TLE):
1 48874U 21058D   23303.06153799  .05059991  96005-5  21939-2 0  9997
2 48874  60.7011 224.0190 0006424 232.5756 127.4794 16.22065963130493
Source of the keplerian elements: AFSPC